Regional Weather Roundup
Issued by NWS

Home | Current Version | Previous Version | Graphics & Text | Print | Product List | Glossary On
Versions: 1 2 3 4 5 6 7 8 9 10 11 12 13 14 15 16 17 18 19 20 21 22 23 24 25 26 27 28 29 30 31 32 33 34 35 36 37 38 39 40 41 42 43 44 45 46 47 48 49 50
000
ASUS43 KFSD 211910
RWRSD

WEATHER ROUNDUP FOR SOUTH DAKOTA
NATIONAL WEATHER SERVICE SIOUX FALLS SD
200 PM CDT FRI JUL 21 2017

NOTE: "FAIR" INDICATES FEW OR NO CLOUDS BELOW 12,000 FEET WITH NO
SIGNIFICANT WEATHER AND/OR OBSTRUCTIONS TO VISIBILITY.


SDZ001>005-009-010-012>017-212000-
NORTHWEST AND NORTH CENTRAL SOUTH DAKOTA

CITY           SKY/WX    TMP DP  RH WIND       PRES   REMARKS
BUFFALO          N/A     88  58  36 NW14      29.84S
FAITH            N/A     90  62  39 VRB3      29.84F
MOBRIDGE       CLOUDY    89  74  60 NW3       29.78F HX  98
$$

SDZ012>016-024>037-041>051-057-063-072>074-212000-
SOUTHWEST AND SOUTH CENTRAL SOUTH DAKOTA

CITY           SKY/WX    TMP DP  RH WIND       PRES   REMARKS
RAPID CTY ARPT SUNNY     92  56  29 N21G31    29.91S HAZE
PIERRE         SUNNY     93  71  48 VRB3      29.78  HX 100
CUSTER         CLOUDY    85  31  14 NW12G22   30.10R
ELLSWORTH AFB  MOSUNNY   89  55  31 N23G33    29.91S SMOKE
PHILIP         SUNNY     94  65  38 NW10      29.81F HX  96
PINE RIDGE     SUNNY     93  58  30 NW10G17   29.92S
SPEARFISH      FAIR      84  50  30 W15G24    30.01S
WINNER         FAIR      95  71  45 VRB5      29.81F HX 102
$$

SDZ004>011-016>023-039-040-212000-
NORTHEAST SOUTH DAKOTA

CITY           SKY/WX    TMP DP  RH WIND       PRES   REMARKS
ABERDEEN       MOSUNNY   87  73  62 MISG      29.80F
WATERTOWN      SUNNY     86  69  56 S6        29.84R
BROOKINGS      MOSUNNY   84  72  67 VRB7      29.85S
SISSETON         N/A     89  76  65 SE12      29.77F HX 100
$$

SDZ017-020-022-023-036>040-048>070-212000-
SOUTHEAST SOUTH DAKOTA

CITY           SKY/WX    TMP DP  RH WIND       PRES   REMARKS
SIOUX FALLS    CLOUDY    85  72  65 SE5       29.84R
HURON          SUNNY     89  71  55 S9G16     29.79F HX  95
CHAMBERLAIN    SUNNY     93  73  51 S6        29.80R HX 102
MITCHELL       SUNNY     88  70  55 SE12      29.80F
YANKTON        CLOUDY    86  75  69 E10       29.79F HX  95
$$

ABBREVIATIONS USED IN REMARKS
   TC - TEMPERATURE IN CELSIUS
  WCI - WIND CHILL INDEX
   HX - HEAT INDEX
  VSB - VISIBILITY





USA.gov is the U.S. government's official web portal to all federal, state and local government web resources and services.